Starlink 3139

operational
NORAD ID: 49425 Int'l Des: 2021-104 Owner: SPXS Country: US Constellation: starlink
LEOCIRCULAR

Starlink 3139について

説明を読み込み中...

リアルタイム位置

3D地球を読み込み中...

次回通過

高度履歴

Altitude vs Time

uPlot chart will show altitude changes over time

軌道要素

1 49425U 21104T 25257.41124993 .00000237 00000-0 32950-4 0 9991
2 49425 53.2152 300.4776 0001156 85.8594 274.2530 15.08840617212023
Epoch: Sep 14, 2025 • Age: 25 hours

現在のステータス

高度 543.7 km
速度 7.59 km/s
衛星直下点 -13.78°S, 27.08°W
打ち上げ日 Nov 13, 2021
運用期間 3.8 years
タイプ internet

技術仕様

分類 Payload
質量 290.00 kg
乾燥質量 270.00 kg
総質量 290.00 kg
長さ 0.20 m
直径 2.80 m
スパン 9.00 m
形状 Box + pan
製造者 SPXS
バスタイプ Starlink
フェーズステータス In Orbit
所有者/国 SPXS/US

大規模コンステレーション

Loading constellations...